sat.trackr.live / text

‹ back to catalog

ICEYE-X47

NORAD 62389 · 2024-247N

PAYLOAD ACTIVE UNKNOWN

§ Identity

Operator
Country
FIN
Launch date
2024-12-21
Launch site
AFWTR
Launch vehicle
Mass (kg)
RCS (m²)

External: N2YO · Heavens-Above · Gunter

§ Orbital elements

Epoch: 2026-05-24T23:20:18.337344Z

Period
95.17 min
Inclination
44.9966°
Eccentricity
0.0000132
Mean motion
15.13036859 rev/d
Perigee alt
526.9 km
Apogee alt
527.0 km
Semi-major
6,905.1 km
B*
1.2634e-4
RAAN
120.9592°
Arg perigee
355.6490°
Mean anomaly
4.4386°
Rev number
7,866

§ Raw data

ICEYE-X471 62389U 24247N   26144.97243446  .00002015  00000+0  12634-3 0  99992 62389  44.9966 120.9592 0000132 355.6490   4.4386 15.13036859 78667

JSON: /api/v1/satellites/62389 · /tle

For live sub-satellite position, see the globe view (requires WebGL).

§ Visibility from observer

Set your observer location to see the next 7 days of passes ≥ 10°. The values pass through the URL so the page stays shareable.

No JS? Fill the form by hand. The geolocation button needs JavaScript.